Torna al catalogo

FENGYUN 1C DEB

AttivoSSO
NORAD 29849·DEBRIS·🇨🇳 China

Lanciato May 10, 1999 da Taiyuan Satellite Launch Center

Loading…

Prossimi Passaggi (prossime 24 ore)

TLE

AggiornatoSource: Space-Track

Epoca: Sep 14, 2026, 11:14 UTC

1 29849U 99025ET  26257.46844015  .00001196  00000-0  73919-3 0  9990
2 29849  99.0022 344.9580 0079261 356.0272  62.3829 14.05740159  2434

Traccia FENGYUN 1C DEB in tempo reale con AllMySat

Download on the App Store